WAT4788 RKJJ-RKPC

Flight info

Callsign WAT4788
Flight time 0h 49m
Altitude 14000
Route LILVI1 DOTOL DOTOL2T
Aircraft AT76/M-SDFGIRY/S

Departure

Time 2026-04-21 09:43
Airport Gwangju Airport (RKJJ)

Arrival

Time 2026-04-21 10:32
Airport Jeju International Airport (RKPC)
Time Latitude Longitude Altitude Speed Heading
2026-04-21 09:25 35.13868 126.81064 66 ft 0 kts 303°
2026-04-21 09:26 35.13869 126.81064 66 ft 0 kts 303°
2026-04-21 09:26 35.13866 126.81068 66 ft 2 kts 303°
2026-04-21 09:26 35.13858 126.81083 66 ft 2 kts 303°
2026-04-21 09:26 35.13851 126.81097 66 ft 0 kts 303°
2026-04-21 09:27 35.13846 126.81109 66 ft 2 kts 284°
2026-04-21 09:27 35.13845 126.81126 66 ft 2 kts 259°
2026-04-21 09:27 35.13850 126.81143 66 ft 2 kts 233°
2026-04-21 09:27 35.13860 126.81155 67 ft 1 kts 211°
2026-04-21 09:28 35.13861 126.81155 67 ft 0 kts 211°
2026-04-21 09:31 35.13855 126.81151 66 ft 2 kts 212°
2026-04-21 09:31 35.13834 126.81135 65 ft 5 kts 212°
2026-04-21 09:32 35.13795 126.81110 63 ft 7 kts 192°
2026-04-21 09:32 35.13737 126.81137 60 ft 11 kts 137°
2026-04-21 09:32 35.13678 126.81197 57 ft 11 kts 198°
2026-04-21 09:32 35.13612 126.81153 57 ft 9 kts 211°
2026-04-21 09:33 35.13560 126.81113 57 ft 8 kts 212°
2026-04-21 09:33 35.13513 126.81078 58 ft 8 kts 212°
2026-04-21 09:33 35.13462 126.81039 58 ft 9 kts 212°
2026-04-21 09:33 35.13400 126.80993 57 ft 11 kts 212°
2026-04-21 09:34 35.13330 126.80939 55 ft 12 kts 213°
2026-04-21 09:34 35.13255 126.80881 54 ft 12 kts 213°
2026-04-21 09:34 35.13180 126.80824 54 ft 12 kts 212°
2026-04-21 09:34 35.13107 126.80769 55 ft 11 kts 212°
2026-04-21 09:35 35.13039 126.80718 56 ft 10 kts 212°
2026-04-21 09:35 35.12978 126.80671 58 ft 10 kts 212°
2026-04-21 09:35 35.12918 126.80625 59 ft 10 kts 212°
2026-04-21 09:35 35.12860 126.80582 61 ft 8 kts 211°
2026-04-21 09:36 35.12808 126.80543 62 ft 8 kts 212°
2026-04-21 09:36 35.12754 126.80502 64 ft 9 kts 212°
2026-04-21 09:36 35.12702 126.80463 65 ft 8 kts 211°
2026-04-21 09:36 35.12653 126.80426 67 ft 8 kts 213°
2026-04-21 09:37 35.12600 126.80385 66 ft 9 kts 212°
2026-04-21 09:37 35.12540 126.80339 67 ft 10 kts 212°
2026-04-21 09:37 35.12476 126.80292 68 ft 10 kts 211°
2026-04-21 09:37 35.12410 126.80241 65 ft 13 kts 213°
2026-04-21 09:38 35.12318 126.80169 59 ft 16 kts 211°
2026-04-21 09:38 35.12220 126.80096 56 ft 16 kts 212°
2026-04-21 09:38 35.12123 126.80022 54 ft 15 kts 212°
2026-04-21 09:38 35.12033 126.79954 54 ft 14 kts 212°
2026-04-21 09:39 35.11951 126.79892 55 ft 13 kts 212°
2026-04-21 09:39 35.11876 126.79835 56 ft 12 kts 212°
2026-04-21 09:39 35.11799 126.79778 54 ft 13 kts 212°
2026-04-21 09:39 35.11727 126.79771 52 ft 11 kts 131°
2026-04-21 09:40 35.11681 126.79858 53 ft 12 kts 122°
2026-04-21 09:40 35.11629 126.79959 52 ft 15 kts 122°
2026-04-21 09:40 35.11570 126.80076 51 ft 16 kts 121°
2026-04-21 09:40 35.11518 126.80191 49 ft 12 kts 105°
2026-04-21 09:41 35.11544 126.80257 49 ft 0 kts 31°
2026-04-21 09:41 35.11553 126.80263 49 ft 12 kts 30°
2026-04-21 09:42 35.11794 126.80428 46 ft 64 kts 30°
2026-04-21 09:42 35.12288 126.80779 50 ft 97 kts 29°
2026-04-21 09:42 35.12945 126.81232 93 ft 112 kts 26°
2026-04-21 09:42 35.13638 126.81720 164 ft 124 kts 26°
2026-04-21 09:43 35.14477 126.82250 363 ft 143 kts 22°
2026-04-21 09:43 35.15403 126.82777 721 ft 150 kts 31°
2026-04-21 09:43 35.16346 126.83551 726 ft 180 kts 30°
2026-04-21 09:43 35.17470 126.84378 920 ft 194 kts 28°
2026-04-21 09:44 35.18608 126.85192 1441 ft 188 kts 28°
2026-04-21 09:44 35.19735 126.85988 1868 ft 187 kts 28°
2026-04-21 09:44 35.20861 126.86783 2261 ft 188 kts 28°
2026-04-21 09:44 35.21741 126.87952 2605 ft 194 kts 69°
2026-04-21 09:45 35.21925 126.89561 2897 ft 194 kts 85°
2026-04-21 09:45 35.22006 126.91214 3196 ft 196 kts 86°
2026-04-21 09:45 35.22074 126.92865 3493 ft 197 kts 86°
2026-04-21 09:45 35.22139 126.94553 3789 ft 197 kts 87°
2026-04-21 09:46 35.22183 126.96223 4056 ft 199 kts 95°
2026-04-21 09:46 35.21554 126.97686 4298 ft 199 kts 141°
2026-04-21 09:46 35.20326 126.98404 4582 ft 197 kts 161°
2026-04-21 09:46 35.19030 126.98961 4836 ft 198 kts 162°
2026-04-21 09:47 35.17712 126.99509 5095 ft 199 kts 162°
2026-04-21 09:47 35.16399 127.00050 5351 ft 200 kts 162°
2026-04-21 09:47 35.15080 127.00589 5601 ft 201 kts 163°
2026-04-21 09:47 35.13754 127.01123 5836 ft 201 kts 166°
2026-04-21 09:48 35.12413 127.00909 6015 ft 197 kts 212°
2026-04-21 09:48 35.11346 126.99857 6253 ft 195 kts 223°
2026-04-21 09:48 35.10336 126.98746 6457 ft 196 kts 224°
2026-04-21 09:48 35.09306 126.97587 6566 ft 202 kts 224°
2026-04-21 09:49 35.08303 126.96449 7035 ft 190 kts 224°
2026-04-21 09:49 35.07338 126.95350 7215 ft 195 kts 224°
2026-04-21 09:49 35.06333 126.94202 7394 ft 199 kts 224°
2026-04-21 09:49 35.05323 126.93049 7611 ft 200 kts 224°
2026-04-21 09:50 35.04304 126.91888 7829 ft 200 kts 224°
2026-04-21 09:50 35.03628 126.91117 7970 ft 200 kts 224°
2026-04-21 09:50 35.01247 126.88402 8441 ft 201 kts 224°
2026-04-21 09:51 35.00217 126.87227 8629 ft 202 kts 224°
2026-04-21 09:51 34.99189 126.86055 8812 ft 203 kts 224°
2026-04-21 09:51 34.98162 126.84885 8990 ft 203 kts 224°
2026-04-21 09:51 34.97124 126.83704 9167 ft 204 kts 224°
2026-04-21 09:52 34.96090 126.82528 9341 ft 204 kts 225°
2026-04-21 09:52 34.95041 126.81335 9514 ft 205 kts 225°
2026-04-21 09:52 34.94006 126.80157 9681 ft 205 kts 225°
2026-04-21 09:52 34.92962 126.78970 9846 ft 205 kts 225°
2026-04-21 09:53 34.91920 126.77787 10008 ft 206 kts 225°
2026-04-21 09:53 34.90861 126.76585 10170 ft 206 kts 225°
2026-04-21 09:53 34.89818 126.75401 10328 ft 207 kts 225°
2026-04-21 09:53 34.88757 126.74197 10485 ft 207 kts 225°
2026-04-21 09:54 34.87706 126.73004 10640 ft 207 kts 226°
2026-04-21 09:54 34.86644 126.71800 10795 ft 208 kts 226°
2026-04-21 09:54 34.85587 126.70600 10946 ft 208 kts 226°
2026-04-21 09:54 34.84526 126.69398 11095 ft 208 kts 226°
2026-04-21 09:55 34.83459 126.68188 11240 ft 208 kts 226°
2026-04-21 09:55 34.82303 126.67124 11335 ft 216 kts 203°
2026-04-21 09:55 34.80798 126.66840 11496 ft 218 kts 190°
2026-04-21 09:55 34.79299 126.66667 11619 ft 219 kts 189°
2026-04-21 09:56 34.77773 126.66501 11741 ft 220 kts 189°
2026-04-21 09:56 34.76243 126.66338 11864 ft 221 kts 189°
2026-04-21 09:56 34.74709 126.66175 11986 ft 221 kts 189°
2026-04-21 09:56 34.73170 126.66013 12108 ft 222 kts 189°
2026-04-21 09:57 34.71617 126.65850 12233 ft 222 kts 189°
2026-04-21 09:57 34.70081 126.65688 12355 ft 223 kts 190°
2026-04-21 09:57 34.68533 126.65526 12474 ft 223 kts 190°
2026-04-21 09:57 34.66969 126.65361 12593 ft 224 kts 190°
2026-04-21 09:58 34.65419 126.65198 12712 ft 224 kts 190°
2026-04-21 09:58 34.63863 126.65035 12829 ft 224 kts 190°
2026-04-21 09:58 34.62313 126.64874 12942 ft 224 kts 190°
2026-04-21 09:58 34.60754 126.64710 13054 ft 224 kts 190°
2026-04-21 09:59 34.59198 126.64547 13165 ft 224 kts 190°
2026-04-21 09:59 34.57630 126.64383 13274 ft 224 kts 191°
2026-04-21 09:59 34.56081 126.64220 13380 ft 225 kts 191°
2026-04-21 09:59 34.54509 126.64056 13484 ft 225 kts 191°
2026-04-21 10:00 34.52949 126.63893 13585 ft 225 kts 191°
2026-04-21 10:00 34.51391 126.63730 13683 ft 225 kts 191°
2026-04-21 10:00 34.49817 126.63565 13781 ft 225 kts 191°
2026-04-21 10:00 34.48264 126.63403 13876 ft 225 kts 191°
2026-04-21 10:01 34.46684 126.63238 13972 ft 225 kts 191°
2026-04-21 10:01 34.45125 126.63075 14064 ft 225 kts 191°
2026-04-21 10:01 34.43559 126.62910 14098 ft 228 kts 191°
2026-04-21 10:01 34.41948 126.62741 14105 ft 232 kts 191°
2026-04-21 10:02 34.38683 126.62400 14106 ft 239 kts 191°
2026-04-21 10:02 34.37009 126.62225 14105 ft 242 kts 191°
2026-04-21 10:02 34.35312 126.62048 14103 ft 244 kts 191°
2026-04-21 10:03 34.33602 126.61870 14102 ft 246 kts 191°
2026-04-21 10:03 34.31885 126.61691 14102 ft 248 kts 191°
2026-04-21 10:03 34.30163 126.61512 14101 ft 249 kts 191°
2026-04-21 10:03 34.28435 126.61332 14101 ft 251 kts 191°
2026-04-21 10:04 34.26676 126.61149 14101 ft 252 kts 191°
2026-04-21 10:04 34.24939 126.60968 14100 ft 253 kts 191°
2026-04-21 10:04 34.23173 126.60784 14101 ft 253 kts 190°
2026-04-21 10:04 34.21426 126.60602 14101 ft 254 kts 190°
2026-04-21 10:05 34.19651 126.60418 14100 ft 255 kts 190°
2026-04-21 10:05 34.17875 126.60233 14101 ft 255 kts 190°
2026-04-21 10:05 34.16116 126.60051 14100 ft 256 kts 190°
2026-04-21 10:05 34.14336 126.59866 14100 ft 256 kts 190°
2026-04-21 10:06 34.12559 126.59682 14056 ft 258 kts 190°
2026-04-21 10:06 34.10757 126.59493 13597 ft 260 kts 190°
2026-04-21 10:06 34.08965 126.59308 13172 ft 260 kts 190°
2026-04-21 10:06 34.07160 126.59121 12737 ft 259 kts 190°
2026-04-21 10:07 34.05360 126.58933 12296 ft 259 kts 190°
2026-04-21 10:07 34.03565 126.58746 11854 ft 259 kts 189°
2026-04-21 10:07 34.01775 126.58560 11412 ft 259 kts 189°
2026-04-21 10:07 34.00009 126.58983 10941 ft 270 kts 154°
2026-04-21 10:08 33.98713 126.60618 10488 ft 275 kts 117°
2026-04-21 10:08 33.98316 126.62834 10075 ft 273 kts 95°
2026-04-21 10:08 33.98140 126.65115 9623 ft 272 kts 95°
2026-04-21 10:08 33.97948 126.67356 9178 ft 271 kts 96°
2026-04-21 10:09 33.97746 126.69589 8734 ft 270 kts 96°
2026-04-21 10:09 33.97539 126.71830 8285 ft 268 kts 96°
2026-04-21 10:09 33.97329 126.74062 7846 ft 266 kts 96°
2026-04-21 10:09 33.97124 126.76247 7393 ft 264 kts 96°
2026-04-21 10:10 33.96916 126.78434 7059 ft 257 kts 96°
2026-04-21 10:10 33.96719 126.80511 7008 ft 246 kts 96°
2026-04-21 10:10 33.96529 126.82499 6988 ft 230 kts 96°
2026-04-21 10:10 33.96352 126.84351 6985 ft 214 kts 96°
2026-04-21 10:11 33.96183 126.86121 6997 ft 212 kts 96°
2026-04-21 10:11 33.96014 126.87892 7001 ft 213 kts 96°
2026-04-21 10:11 33.95843 126.89671 7001 ft 214 kts 96°
2026-04-21 10:11 33.95668 126.91431 6999 ft 214 kts 100°
2026-04-21 10:12 33.95042 126.93042 7015 ft 213 kts 120°
2026-04-21 10:12 33.94291 126.94588 7002 ft 214 kts 120°
2026-04-21 10:12 33.93531 126.96142 7002 ft 215 kts 120°
2026-04-21 10:12 33.92778 126.97679 7001 ft 215 kts 120°
2026-04-21 10:13 33.92013 126.99236 7001 ft 215 kts 120°
2026-04-21 10:13 33.91180 127.00740 6984 ft 216 kts 133°
2026-04-21 10:13 33.90120 127.02031 7001 ft 215 kts 134°
2026-04-21 10:13 33.89069 127.03297 7002 ft 216 kts 134°
2026-04-21 10:14 33.87998 127.04584 7001 ft 216 kts 134°
2026-04-21 10:14 33.86929 127.05868 7001 ft 216 kts 134°
2026-04-21 10:14 33.85861 127.07151 7001 ft 216 kts 134°
2026-04-21 10:14 33.84631 127.08201 7011 ft 216 kts 148°
2026-04-21 10:15 33.83331 127.09130 7002 ft 216 kts 148°
2026-04-21 10:15 33.82032 127.10055 7001 ft 217 kts 148°
2026-04-21 10:15 33.80726 127.10983 7001 ft 217 kts 148°
2026-04-21 10:15 33.79436 127.11900 7001 ft 217 kts 148°
2026-04-21 10:16 33.78098 127.12756 6982 ft 218 kts 161°
2026-04-21 10:16 33.76641 127.13280 7000 ft 217 kts 163°
2026-04-21 10:16 33.75190 127.13790 7001 ft 217 kts 163°
2026-04-21 10:16 33.73749 127.14295 7001 ft 217 kts 163°
2026-04-21 10:17 33.72290 127.14805 7001 ft 218 kts 163°
2026-04-21 10:17 33.70827 127.15316 7001 ft 218 kts 163°
2026-04-21 10:17 33.69320 127.15534 7012 ft 217 kts 177°
2026-04-21 10:17 33.67796 127.15601 7002 ft 218 kts 177°
2026-04-21 10:18 33.66294 127.15662 7001 ft 218 kts 177°
2026-04-21 10:18 33.64766 127.15724 7001 ft 218 kts 177°
2026-04-21 10:18 33.63244 127.15785 7001 ft 218 kts 177°
2026-04-21 10:18 33.61720 127.15759 6982 ft 219 kts 190°
2026-04-21 10:19 33.60230 127.15379 7000 ft 218 kts 192°
2026-04-21 10:19 33.58756 127.14993 7001 ft 218 kts 192°
2026-04-21 10:19 33.57260 127.14600 7001 ft 219 kts 192°
2026-04-21 10:19 33.55789 127.14173 6985 ft 219 kts 202°
2026-04-21 10:20 33.54724 127.12910 6996 ft 218 kts 246°
2026-04-21 10:20 33.54653 127.11163 6976 ft 207 kts 286°
2026-04-21 10:20 33.55093 127.09551 6788 ft 202 kts 290°
2026-04-21 10:20 33.55571 127.07981 6528 ft 202 kts 290°
2026-04-21 10:21 33.56055 127.06399 6275 ft 202 kts 290°
2026-04-21 10:21 33.56534 127.04835 6031 ft 201 kts 290°
2026-04-21 10:21 33.57016 127.03262 5785 ft 200 kts 290°
2026-04-21 10:21 33.57495 127.01695 5541 ft 199 kts 290°
2026-04-21 10:22 33.57972 127.00137 5294 ft 199 kts 290°
2026-04-21 10:22 33.58443 126.98598 5051 ft 198 kts 290°
2026-04-21 10:22 33.58917 126.97041 4805 ft 198 kts 290°
2026-04-21 10:22 33.59389 126.95490 4561 ft 197 kts 290°
2026-04-21 10:23 33.59852 126.93962 4320 ft 197 kts 290°
2026-04-21 10:23 33.60320 126.92409 4078 ft 196 kts 290°
2026-04-21 10:23 33.60786 126.90859 4020 ft 202 kts 290°
2026-04-21 10:23 33.61266 126.89253 4009 ft 206 kts 290°
2026-04-21 10:24 33.61755 126.87613 4006 ft 209 kts 290°
2026-04-21 10:24 33.62241 126.85977 4005 ft 212 kts 290°
2026-04-21 10:24 33.62741 126.84295 4004 ft 214 kts 290°
2026-04-21 10:24 33.63246 126.82593 4004 ft 216 kts 290°
2026-04-21 10:25 33.63748 126.80900 4004 ft 218 kts 290°
2026-04-21 10:25 33.64262 126.79171 4004 ft 220 kts 290°
2026-04-21 10:25 33.64775 126.77438 4003 ft 218 kts 289°
2026-04-21 10:25 33.64716 126.75701 4000 ft 206 kts 245°
2026-04-21 10:26 33.64036 126.74245 3997 ft 198 kts 239°
2026-04-21 10:26 33.63350 126.72865 4064 ft 184 kts 238°
2026-04-21 10:26 33.62699 126.71573 4002 ft 176 kts 238°
2026-04-21 10:26 33.62084 126.70358 3952 ft 168 kts 238°
2026-04-21 10:27 33.61472 126.69158 3740 ft 167 kts 238°
2026-04-21 10:27 33.60867 126.67979 3544 ft 167 kts 238°
2026-04-21 10:27 33.60251 126.66783 3336 ft 168 kts 238°
2026-04-21 10:27 33.59636 126.65585 3126 ft 169 kts 238°
2026-04-21 10:28 33.59014 126.64370 2909 ft 170 kts 238°
2026-04-21 10:28 33.58412 126.63203 2680 ft 162 kts 238°
2026-04-21 10:28 33.57829 126.62067 2462 ft 156 kts 238°
2026-04-21 10:28 33.57272 126.60976 2252 ft 152 kts 238°
2026-04-21 10:29 33.56727 126.59914 2047 ft 148 kts 238°
2026-04-21 10:29 33.56192 126.58878 1847 ft 145 kts 238°
2026-04-21 10:29 33.55664 126.57859 1677 ft 138 kts 238°
2026-04-21 10:29 33.55170 126.56896 1478 ft 134 kts 238°
2026-04-21 10:30 33.54688 126.55956 1291 ft 129 kts 238°
2026-04-21 10:30 33.54225 126.55056 1115 ft 125 kts 238°
2026-04-21 10:30 33.53769 126.54170 944 ft 122 kts 238°
2026-04-21 10:30 33.53330 126.53321 771 ft 118 kts 238°
2026-04-21 10:31 33.52870 126.52467 766 ft 123 kts 236°
2026-04-21 10:31 33.52452 126.51632 582 ft 115 kts 239°
2026-04-21 10:31 33.52031 126.50830 347 ft 111 kts 237°
2026-04-21 10:31 33.51645 126.50061 156 ft 105 kts 237°
2026-04-21 10:32 33.51271 126.49343 76 ft 92 kts 238°
2026-04-21 10:32 33.51010 126.48834 72 ft 41 kts 240°
2026-04-21 10:32 33.50889 126.48602 72 ft 33 kts 238°
2026-04-21 10:32 33.50779 126.48391 74 ft 28 kts 236°
2026-04-21 10:33 33.50675 126.48246 75 ft 20 kts 220°
2026-04-21 10:33 33.50583 126.48177 78 ft 13 kts 208°
2026-04-21 10:33 33.50508 126.48225 82 ft 15 kts 84°
2026-04-21 10:33 33.50562 126.48341 84 ft 19 kts 58°
2026-04-21 10:34 33.50647 126.48505 82 ft 27 kts 58°
2026-04-21 10:34 33.50759 126.48725 76 ft 34 kts 59°
2026-04-21 10:34 33.50891 126.48982 70 ft 35 kts 59°
2026-04-21 10:34 33.51012 126.49219 76 ft 27 kts 60°
2026-04-21 10:35 33.51038 126.49331 78 ft 11 kts 121°
2026-04-21 10:35 33.50961 126.49400 83 ft 14 kts 143°
2026-04-21 10:35 33.50935 126.49520 86 ft 17 kts 103°
2026-04-21 10:35 33.50869 126.49662 92 ft 21 kts 124°
2026-04-21 10:36 33.50786 126.49802 102 ft 20 kts 125°
2026-04-21 10:36 33.50711 126.49927 108 ft 11 kts 124°
2026-04-21 10:36 33.50686 126.49957 109 ft 4 kts 167°
2026-04-21 10:36 33.50653 126.49939 110 ft 5 kts 215°
2026-04-21 10:37 33.50639 126.49926 110 ft 0 kts 216°